sat.trackr.live / text

‹ back to catalog

STARLINK-35625

NORAD 66140 · 2025-237AC

PAYLOAD ACTIVE UNKNOWN

§ Identity

Operator
Country
US
Launch date
2025-10-22
Launch site
AFWTR
Launch vehicle
Mass (kg)
RCS (m²)

Purposes: comms

External: N2YO · Heavens-Above · Gunter

§ Orbital elements

Epoch: 2026-09-20T23:06:52.975296Z

Period
93.85 min
Inclination
53.1571°
Eccentricity
0.0001552
Mean motion
15.34369951 rev/d
Perigee alt
461.7 km
Apogee alt
463.9 km
Semi-major
6,840.9 km
B*
1.2728e-4
RAAN
209.3427°
Arg perigee
104.8389°
Mean anomaly
255.2785°
Rev number
5,255

§ Raw data

STARLINK-356251 66140U 25237AC  26263.96311314  .00003922  00000+0  12728-3 0  99912 66140  53.1571 209.3427 0001552 104.8389 255.2785 15.34369951 52551

JSON: /api/v1/satellites/66140 · /tle

For live sub-satellite position, see the globe view (requires WebGL).

§ Visibility from observer

Set your observer location to see the next 7 days of passes ≥ 10°. The values pass through the URL so the page stays shareable.

No JS? Fill the form by hand. The geolocation button needs JavaScript.